Weather History for Monroe, MI

Change the Weather History Date:

Saturday, May 11, 2013

  Actual Average Record
Temperature  
Mean Temperature 50 °F -  
Max Temperature 60 °F 69 °F 88 °F (1987)
Min Temperature 39 °F 48 °F 31 °F (1934)
Degree Days  
Heating Degree Days 14    
Moisture  
Dew Point 43 °F    
Average Humidity 79    
Maximum Humidity 93    
Minimum Humidity 59    
Precipitation  
Precipitation 0.00 in - - ()
Sea Level Pressure  
Sea Level Pressure 29.84 in    
Wind  
Wind Speed 10 mph (WNW)    
Max Wind Speed 25 mph    
Max Gust Speed 33 mph    
Visibility 10 miles    
Events Rain    
Averages and records for this station are not official NWS values.
T = Trace of Precipitation, MM = Missing Value Source: NWS Daily Summary

Daily Weather History Graph

Daily Weather History Graph

Search for Another Location

Airport:

Trip Planner

Search our weather history database for the weather conditions in past years. The results will help you decide how hot, cold, wet, or windy it might be!

Date:

Astronomy

May. 11, 2013 Rise Set
Actual Time 6:17 AM EDT 8:43 PM EDT
Civil Twilight 5:45 AM EDT 9:15 PM EDT
Nautical Twilight 5:06 AM EDT 9:54 PM EDT
Astronomical Twilight 4:23 AM EDT 10:38 PM EDT
Moon 7:23 AM EDT (5/11) 10:23 PM EDT (5/11)
Length of Visible Light 15h 29m
Length of Day
14h 26m
Waxing Crescent, 3% of the Moon is Illuminated
May 11
Waxing Crescent
May 18
First Quarter
May 25
Full
May 31
Last Quarter
Jun 8
New

Hourly Weather History & Observations

Time (EDT) Temp. Windchill Dew Point Humidity Pressure Visibility Wind Dir Wind Speed Gust Speed Precip Events Conditions
12:13 AM 46.4 °F 41.1 °F 41.0 °F 81% 29.85 in 10.0 mi NNW 11.5 mph 17.3 mph N/A   Overcast
12:33 AM 46.4 °F 40.7 °F 41.0 °F 81% 29.85 in 10.0 mi NNW 12.7 mph 16.1 mph N/A   Overcast
12:53 AM 46.4 °F 42.4 °F 41.0 °F 81% 29.86 in 10.0 mi NNW 8.1 mph - N/A   Overcast
1:13 AM 46.4 °F 40.4 °F 41.0 °F 81% 29.85 in 10.0 mi NNW 13.8 mph - N/A   Overcast
1:33 AM 46.4 °F 41.1 °F 41.0 °F 81% 29.84 in 10.0 mi North 11.5 mph - N/A   Overcast
1:53 AM 46.4 °F 42.4 °F 42.8 °F 87% 29.85 in 10.0 mi NNW 8.1 mph - N/A   Overcast
2:14 AM 46.4 °F 42.4 °F 41.0 °F 81% 29.85 in 10.0 mi NNW 8.1 mph - N/A   Overcast
2:34 AM 46.4 °F 43.5 °F 42.8 °F 87% 29.85 in 10.0 mi NNW 5.8 mph - N/A   Overcast
2:54 AM 46.4 °F 43.5 °F 42.8 °F 87% 29.86 in 10.0 mi NNW 5.8 mph - N/A   Overcast
3:14 AM 46.4 °F 44.3 °F 42.8 °F 87% 29.86 in 10.0 mi NW 4.6 mph - N/A   Overcast
3:34 AM 46.4 °F 43.5 °F 42.8 °F 87% 29.86 in 10.0 mi NW 5.8 mph - N/A   Overcast
3:54 AM 46.4 °F 42.9 °F 42.8 °F 87% 29.87 in 10.0 mi NW 6.9 mph - N/A   Overcast
4:14 AM 46.4 °F 43.5 °F 42.8 °F 87% 29.87 in 10.0 mi NW 5.8 mph - N/A   Overcast
4:34 AM 46.4 °F 42.9 °F 42.8 °F 87% 29.87 in 10.0 mi NW 6.9 mph - N/A   Overcast
4:54 AM 46.4 °F 43.5 °F 42.8 °F 87% 29.86 in 10.0 mi NW 5.8 mph - N/A   Overcast
5:14 AM 46.4 °F 42.4 °F 42.8 °F 87% 29.86 in 10.0 mi NW 8.1 mph - N/A   Overcast
5:35 AM 46.4 °F 43.5 °F 42.8 °F 87% 29.86 in 10.0 mi WNW 5.8 mph - N/A   Overcast
5:55 AM 46.4 °F 42.9 °F 42.8 °F 87% 29.86 in 10.0 mi WNW 6.9 mph - N/A   Overcast
6:15 AM 46.4 °F 43.5 °F 42.8 °F 87% 29.86 in 10.0 mi NW 5.8 mph - N/A   Overcast
6:35 AM 46.4 °F 41.9 °F 42.8 °F 87% 29.86 in 10.0 mi NW 9.2 mph - N/A   Overcast
6:55 AM 46.4 °F 41.9 °F 42.8 °F 87% 29.87 in 10.0 mi NW 9.2 mph - N/A   Overcast
7:15 AM 46.4 °F 42.4 °F 42.8 °F 87% 29.87 in 10.0 mi NW 8.1 mph - N/A   Overcast
7:35 AM 46.4 °F 42.4 °F 42.8 °F 87% 29.87 in 10.0 mi NW 8.1 mph - N/A   Overcast
7:55 AM 46.4 °F 43.5 °F 42.8 °F 87% 29.87 in 10.0 mi NNW 5.8 mph - N/A   Overcast
8:15 AM 46.4 °F 42.9 °F 42.8 °F 87% 29.86 in 10.0 mi NNW 6.9 mph - N/A   Overcast
8:36 AM 46.4 °F 43.5 °F 42.8 °F 87% 29.86 in 10.0 mi WNW 5.8 mph - N/A   Overcast
8:56 AM 46.4 °F 42.9 °F 42.8 °F 87% 29.86 in 10.0 mi WNW 6.9 mph - N/A   Overcast
9:16 AM 46.4 °F 42.9 °F 42.8 °F 87% 29.86 in 10.0 mi NW 6.9 mph - N/A   Overcast
9:36 AM 46.4 °F 42.9 °F 44.6 °F 93% 29.86 in 10.0 mi West 6.9 mph - N/A   Overcast
9:56 AM 48.2 °F - 44.6 °F 87% 29.86 in 10.0 mi West 8.1 mph - N/A   Overcast
10:16 AM 48.2 °F - 44.6 °F 87% 29.86 in 10.0 mi WNW 5.8 mph - N/A   Overcast
10:36 AM 48.2 °F - 42.8 °F 82% 29.85 in 10.0 mi WNW 8.1 mph - N/A   Overcast
10:51 AM 48.2 °F - 44.6 °F 87% 29.85 in 10.0 mi West 6.9 mph - N/A   Overcast
11:11 AM 48.2 °F - 44.6 °F 87% 29.86 in 10.0 mi West 9.2 mph - N/A   Overcast
11:31 AM 50.0 °F - 44.6 °F 82% 29.85 in 10.0 mi West 9.2 mph - N/A   Overcast
11:52 AM 51.8 °F - 44.6 °F 76% 29.85 in 10.0 mi West 8.1 mph - N/A   Overcast
12:12 PM 51.8 °F - 44.6 °F 76% 29.85 in 10.0 mi WSW 9.2 mph - N/A   Overcast
12:32 PM 51.8 °F - 44.6 °F 76% 29.85 in 10.0 mi WNW 5.8 mph - N/A   Overcast
12:52 PM 51.8 °F - 46.4 °F 82% 29.84 in 10.0 mi WSW 5.8 mph - N/A   Overcast
1:12 PM 53.6 °F - 46.4 °F 77% 29.83 in 10.0 mi SW 5.8 mph - N/A   Overcast
1:32 PM 53.6 °F - 46.4 °F 77% 29.83 in 10.0 mi WSW 10.4 mph - N/A   Overcast
1:52 PM 53.6 °F - 46.4 °F 77% 29.82 in 10.0 mi WSW 9.2 mph - N/A   Overcast
2:12 PM 53.6 °F - 46.4 °F 77% 29.82 in 10.0 mi WSW 11.5 mph - N/A   Overcast
2:32 PM 53.6 °F - 46.4 °F 77% 29.82 in 10.0 mi WSW 11.5 mph - N/A   Overcast
2:53 PM 53.6 °F - 46.4 °F 77% 29.81 in 10.0 mi SW 10.4 mph - N/A   Overcast
3:13 PM 55.4 °F - 46.4 °F 72% 29.80 in 10.0 mi SSW 10.4 mph - N/A   Overcast
3:33 PM 59.0 °F - 46.4 °F 63% 29.79 in 10.0 mi SW 12.7 mph 17.3 mph N/A   Scattered Clouds
3:53 PM 59.0 °F - 46.4 °F 63% 29.78 in 10.0 mi SSW 8.1 mph - N/A   Scattered Clouds
4:13 PM 60.8 °F - 46.4 °F 59% 29.77 in 10.0 mi SW 16.1 mph - N/A   Scattered Clouds
4:33 PM 60.8 °F - 46.4 °F 59% 29.76 in 10.0 mi SW 16.1 mph 19.6 mph N/A   Mostly Cloudy
4:53 PM 60.8 °F - 46.4 °F 59% 29.76 in 10.0 mi SW 13.8 mph 21.9 mph N/A   Mostly Cloudy
5:13 PM 60.8 °F - 48.2 °F 63% 29.76 in 10.0 mi SW 19.6 mph 25.3 mph N/A   Mostly Cloudy
5:33 PM 59.0 °F - 46.4 °F 63% 29.76 in 10.0 mi WSW 17.3 mph 31.1 mph N/A   Overcast
5:53 PM 57.2 °F - 48.2 °F 72% 29.77 in 10.0 mi WSW 19.6 mph 25.3 mph N/A   Overcast
6:14 PM 57.2 °F - 46.4 °F 67% 29.76 in 10.0 mi WSW 19.6 mph 24.2 mph N/A   Overcast
6:34 PM 57.2 °F - 46.4 °F 67% 29.76 in 10.0 mi WSW 16.1 mph 23.0 mph N/A   Overcast
6:54 PM 57.2 °F - 48.2 °F 72% 29.76 in 10.0 mi WSW 17.3 mph 23.0 mph N/A   Overcast
7:14 PM 55.4 °F - 48.2 °F 77% 29.77 in 7.0 mi West 17.3 mph 26.5 mph N/A   Overcast
7:34 PM 51.8 °F - 48.2 °F 88% 29.80 in 7.0 mi WNW 17.3 mph 23.0 mph N/A Rain Light Rain
7:54 PM 50.0 °F - 44.6 °F 82% 29.82 in 10.0 mi WNW 21.9 mph 28.8 mph N/A   Overcast
8:14 PM 48.2 °F - 42.8 °F 82% 29.82 in 10.0 mi WNW 17.3 mph 25.3 mph N/A   Overcast
8:34 PM 48.2 °F - 39.2 °F 71% 29.84 in 10.0 mi WNW 25.3 mph 32.2 mph N/A   Overcast
8:54 PM 46.4 °F 39.0 °F 37.4 °F 71% 29.86 in 10.0 mi WNW 19.6 mph 33.4 mph N/A   Mostly Cloudy
9:14 PM 46.4 °F 38.5 °F 35.6 °F 66% 29.87 in 10.0 mi NW 21.9 mph 31.1 mph N/A   Scattered Clouds
9:35 PM 44.6 °F 37.8 °F 35.6 °F 71% 29.87 in 10.0 mi NW 15.0 mph 24.2 mph N/A   Clear
9:55 PM 44.6 °F 37.8 °F 35.6 °F 71% 29.88 in 10.0 mi NW 15.0 mph 21.9 mph N/A   Clear
10:15 PM 42.8 °F 37.0 °F 35.6 °F 76% 29.89 in 10.0 mi NW 10.4 mph - N/A   Clear
10:35 PM 42.8 °F 37.0 °F 35.6 °F 76% 29.90 in 10.0 mi NW 10.4 mph - N/A   Clear
10:55 PM 42.8 °F 38.6 °F 35.6 °F 76% 29.91 in 10.0 mi WNW 6.9 mph - N/A   Clear
11:35 PM 41.0 °F 37.1 °F 35.6 °F 81% 29.91 in 10.0 mi West 5.8 mph - N/A   Clear
11:55 PM 39.2 °F 37.0 °F 35.6 °F 87% 29.91 in 10.0 mi West 3.5 mph - N/A   Clear